Regional Weather Roundup
Issued by NWS

Home | Current Version | Previous Version | Graphics & Text | Print | Product List | Glossary On
Versions: 1 2 3 4 5 6 7 8 9 10 11 12 13 14 15 16 17 18 19 20 21 22 23 24 25 26 27 28 29 30 31 32 33 34 35 36 37 38 39 40 41 42 43 44 45 46 47 48 49 50
170
ASUS43 KLSX 280707
RWRMO

WEATHER SUMMARY FOR MISSOURI
NATIONAL WEATHER SERVICE SPRINGFIELD MO
200 AM CDT WED SEP 28 2016

NOTE: "FAIR" INDICATES FEW OR NO CLOUDS BELOW 12,000 FEET WITH NO
       SIGNIFICANT WEATHER AND/OR OBSTRUCTIONS TO VISIBILITY.
       CURRENT SKY AND/OR WEATHER CONDITIONS ARE NOT AVAILABLE FOR
       CHILLICOTHE AND FARMINGTON.

MOZ001>031-035>038-043-044-053-054-280800-
...NORTHERN AND WESTERN MISSOURI...

CITY           SKY/WX    TMP DP  RH WIND       PRES   REMARKS
KANSAS CTY INT CLEAR     60  53  77 SW7       29.86S
KANSAS C DTWN  CLEAR     61  56  83 S5        29.86S
LEE`S SUMMIT   CLEAR     62  55  77 W6        29.87S
ST JOSEPH      CLEAR     53  51  93 N5        29.87S
CHILLICOTHE      N/A     53  51  93 CALM      29.86S
KIRKSVILLE     CLEAR     53  47  79 W7        29.83R

$$
MOZ066>068-077>081-088>096-101>105-280800-
...SOUTHWEST MISSOURI...

CITY           SKY/WX    TMP DP  RH WIND       PRES   REMARKS
SPRINGFIELD    CLEAR     62  47  57 SW10      29.93S
JOPLIN         CLEAR     65  50  58 SW13      29.94F
BRANSON        PTCLDY    63  46  55 SW8       29.97S

$$
MOZ032>034-039>042-045>050-055>058-069>072-280800-
...CENTRAL MISSOURI...

CITY           SKY/WX    TMP DP  RH WIND       PRES   REMARKS
COLUMBIA       CLEAR     61  55  81 W8        29.85S
JEFFERSON CITY CLEAR     58  54  86 CALM      29.84F
ROLLA          CLEAR     58  51  78 SW10      29.86F
SEDALIA        CLEAR     63  55  75 SW8       29.86S
WHITEMAN AFB   CLEAR     62  58  86 SW7       29.84F
OSAGE BEACH    CLEAR     64  51  62 SW7       29.88F

$$
MOZ051-052-059>065-280800-
...EAST CENTRAL MISSOURI...

CITY           SKY/WX    TMP DP  RH WIND       PRES   REMARKS
ST LOUIS INTL  PTCLDY    65  53  65 SW10      29.82F
SPIRIT OF STL  CLOUDY    64  55  72 SW8       29.81F
ST CHARLES     CLEAR     56  53  90 CALM      29.80F

$$
MOZ072>076-082>087-097>100-106>115-280800-
...SOUTH CENTRAL AND SOUTHEAST MISSOURI...

CITY           SKY/WX    TMP DP  RH WIND       PRES   REMARKS
CAPE GIRARDEAU CLEAR     56  50  80 CALM      29.88F
FARMINGTON     CLEAR     64  50  60 W5        29.88S
POPLAR BLUFF   CLEAR     59  53  80 SW6       29.90F
WEST PLAINS    CLEAR     57  49  74 SW6       29.95F

$$



USA.gov is the U.S. government's official web portal to all federal, state and local government web resources and services.